Weather History for EGPH - June, 2013

Change the Weather History Date:

Thursday, June 27, 2013

  Actual Average Record
Temperature  
Mean Temperature 54 °F -  
Max Temperature 59 °F 66 °F - (-1)
Min Temperature 48 °F 51 °F - (-1)
Degree Days  
Heating Degree Days 12    
Growing Degree Days 4 (Base 50)    
Moisture  
Dew Point 51 °F    
Average Humidity 88    
Maximum Humidity 94    
Minimum Humidity 76    
Precipitation  
Precipitation 0.00 in 0.07 in - ()
Sea Level Pressure  
Sea Level Pressure 30.25 in    
Wind  
Wind Speed 7 mph ()    
Max Wind Speed 12 mph    
Max Gust Speed -    
Visibility 5.8 miles    
Events Rain    
Averages and records for this station are not official NWS values.
T = Trace of Precipitation, MM = Missing Value Source: Averaged Metar Reports

Daily Weather History Graph

Daily Weather History Graph

Search for Another Location

Airport or City:

Trip Planner

Search our weather history database for the weather conditions in past years. The results will help you decide how hot, cold, wet, or windy it might be!

Date:

Astronomy

Jun. 27, 2013 Rise Set
Actual Time 4:29 AM BST 10:03 PM BST
Civil Twilight 3:27 AM BST 11:05 PM BST
Nautical Twilight 1:48 AM BST 12:44 AM BST
Astronomical Twilight Sun does not set Sun does not set
Moon 11:46 PM BST (6/27) 10:12 AM BST (6/27)
Length of Visible Light 19h 37m
Length of Day
17h 33m
Waning Gibbous, 78% of the Moon is Illuminated
Jun 27
Waning Gibbous
Jun 30
Last Quarter
Jul 8
New
Jul 16
First Quarter
Jul 22
Full

Hourly Weather History & Observations

Time (BST) Temp. Dew Point Humidity Pressure Visibility Wind Dir Wind Speed Gust Speed Precip Events Conditions
12:20 AM 50.0 °F 48.2 °F 94% 30.42 in - Variable 2.3 mph - N/A   Clear
12:50 AM 48.2 °F 46.4 °F 93% 30.42 in - Calm Calm - N/A   Clear
1:20 AM 48.2 °F 46.4 °F 93% 30.39 in - SW 4.6 mph - N/A   Clear
1:50 AM 48.2 °F 46.4 °F 93% 30.39 in - WSW 8.1 mph - N/A   Clear
2:20 AM 50.0 °F 46.4 °F 87% 30.39 in 6.2 mi WSW 6.9 mph - N/A   Unknown
2:50 AM 50.0 °F 46.4 °F 87% 30.39 in - WSW 5.8 mph - N/A   Clear
3:20 AM 50.0 °F 44.6 °F 82% 30.36 in 6.2 mi SW 6.9 mph - N/A   Unknown
3:50 AM 48.2 °F 44.6 °F 87% 30.36 in - WSW 4.6 mph - N/A   Clear
4:20 AM 48.2 °F 44.6 °F 87% 30.36 in 6.2 mi WSW 5.8 mph - N/A   Unknown
4:50 AM 48.2 °F 44.6 °F 87% 30.33 in 6.2 mi WSW 6.9 mph - N/A   Unknown
5:20 AM 50.0 °F 44.6 °F 82% 30.33 in 6.2 mi WSW 5.8 mph - N/A   Unknown
5:50 AM 50.0 °F 44.6 °F 82% 30.33 in - SW 9.2 mph - N/A   Clear
6:20 AM 51.8 °F 44.6 °F 76% 30.33 in 6.2 mi WSW 8.1 mph - N/A   Unknown
6:50 AM 51.8 °F 44.6 °F 76% 30.33 in 6.2 mi WSW 9.2 mph - N/A   Partly Cloudy
7:20 AM 51.8 °F 44.6 °F 76% 30.33 in - WSW 11.5 mph - N/A   Clear
7:50 AM 51.8 °F 46.4 °F 82% 30.30 in 6.2 mi WSW 11.5 mph - N/A Rain Light Rain
8:20 AM 51.8 °F 48.2 °F 88% 30.30 in 6.2 mi WSW 9.2 mph - N/A Rain Light Rain
8:50 AM 53.6 °F 48.2 °F 82% 30.30 in 6.2 mi WSW 11.5 mph - N/A Rain Light Rain
9:20 AM 53.6 °F 48.2 °F 82% 30.30 in 6.2 mi WSW 9.2 mph - N/A Rain Light Rain
9:50 AM 53.6 °F 50.0 °F 88% 30.30 in 6.2 mi WSW 10.4 mph - N/A Rain Light Rain
10:20 AM 55.4 °F 50.0 °F 82% 30.27 in 6.2 mi WSW 9.2 mph - N/A Rain Light Rain
10:50 AM 55.4 °F 50.0 °F 82% 30.27 in 6.2 mi West 11.5 mph - N/A Rain Light Rain
11:20 AM 55.4 °F 51.8 °F 88% 30.27 in 6.2 mi West 11.5 mph - N/A Rain Light Rain
11:50 AM 55.4 °F 51.8 °F 88% 30.27 in 3.1 mi WSW 10.4 mph - N/A Rain Light Rain
12:20 PM 55.4 °F 53.6 °F 94% 30.27 in 3.1 mi WSW 10.4 mph - N/A Rain Rain
12:50 PM 55.4 °F 53.6 °F 94% 30.24 in 2.5 mi WSW 9.2 mph - N/A Rain Rain
1:20 PM 55.4 °F 53.6 °F 94% 30.24 in 2.5 mi WSW 10.4 mph - N/A Rain Light Rain
1:50 PM 55.4 °F 53.6 °F 94% 30.24 in 2.5 mi WSW 9.2 mph - N/A Rain Rain
2:20 PM 55.4 °F 53.6 °F 94% 30.21 in 6.2 mi WSW 10.4 mph - N/A Rain Light Rain
2:50 PM 57.2 °F 55.4 °F 94% 30.21 in 6.2 mi WSW 9.2 mph - N/A   Mostly Cloudy
3:20 PM 57.2 °F 53.6 °F 88% 30.21 in 6.2 mi West 8.1 mph - N/A   Overcast
3:50 PM 57.2 °F 53.6 °F 88% 30.21 in 6.2 mi West 8.1 mph - N/A   Mostly Cloudy
4:20 PM 57.2 °F 53.6 °F 88% 30.18 in 6.2 mi West 6.9 mph - N/A   Mostly Cloudy
4:50 PM 57.2 °F 53.6 °F 88% 30.18 in 6.2 mi West 10.4 mph - N/A   Mostly Cloudy
5:20 PM 59.0 °F 55.4 °F 88% 30.18 in 6.2 mi WSW 10.4 mph - N/A   Mostly Cloudy
5:50 PM 59.0 °F 55.4 °F 88% 30.15 in 6.2 mi WSW 10.4 mph - N/A   Mostly Cloudy
6:20 PM 59.0 °F 53.6 °F 82% 30.15 in 6.2 mi WSW 9.2 mph - N/A   Mostly Cloudy
6:50 PM 59.0 °F 55.4 °F 88% 30.15 in 6.2 mi WSW 9.2 mph - N/A   Mostly Cloudy
7:20 PM 59.0 °F 55.4 °F 88% 30.15 in 6.2 mi West 6.9 mph - N/A   Mostly Cloudy
7:50 PM 59.0 °F 55.4 °F 88% 30.15 in 6.2 mi WSW 8.1 mph - N/A   Mostly Cloudy
8:20 PM 59.0 °F 55.4 °F 88% 30.12 in 6.2 mi WSW 8.1 mph - N/A   Mostly Cloudy
8:50 PM 59.0 °F 55.4 °F 88% 30.12 in 6.2 mi WSW 8.1 mph - N/A   Mostly Cloudy
9:20 PM 59.0 °F 55.4 °F 88% 30.12 in 6.2 mi West 8.1 mph - N/A   Mostly Cloudy
9:50 PM 59.0 °F 57.2 °F 94% 30.12 in 6.2 mi West 5.8 mph - N/A Rain Light Rain
10:20 PM 59.0 °F 55.4 °F 88% 30.12 in 6.2 mi WSW 8.1 mph - N/A   Mostly Cloudy
10:50 PM 59.0 °F 55.4 °F 88% 30.12 in 6.2 mi WSW 6.9 mph - N/A   Overcast
11:20 PM 57.2 °F 55.4 °F 94% 30.12 in 6.2 mi WSW 8.1 mph - N/A   Overcast
11:50 PM 55.4 °F 53.6 °F 94% 30.12 in 6.2 mi WSW 9.2 mph - N/A   Mostly Cloudy